Wind_Speed
45 45 45 44 44 44 43 43 42 42 42 42 42 44 44 44 44 44 44 44 42 41 40 40 41 41 42 42 41 40 39 38 37 37 37 37 38 38 38 39 40 41
50 50 50 49 48 47 46 46 45 45 46 46 46 46 46 45 44 44 44 44 43 42 42 42 43 43 43 42 40 39 38 37 37 37 38 38 38 39 39 40 41 41
51 52 53 53 52 51 49 48 48 48 48 48 48 47 46 45 45 45 45 45 45 44 45 45 45 44 43 41 39 38 37 37 37 38 38 38 39 39 40 41 41 41
49 50 51 52 52 51 50 48 48 48 47 46 45 45 45 45 45 45 45 45 45 46 47 47 47 45 43 41 39 38 37 38 38 38 38 39 40 41 42 43 43 42
50 50 50 50 50 49 47 47 47 47 46 45 44 43 44 45 45 46 46 47 48 50 51 50 47 45 43 41 40 40 40 39 39 40 40 41 42 43 44 44 44 44
51 52 51 51 51 49 48 48 49 48 48 48 48 49 48 49 49 50 51 53 54 55 54 51 48 46 44 43 42 42 42 42 42 42 42 43 43 44 45 45 44 44
54 54 54 54 55 54 53 53 52 52 52 53 54 54 54 54 54 55 56 56 56 56 55 53 50 47 46 45 45 45 45 45 45 45 45 46 46 46 45 45 44 44
58 57 57 58 58 59 58 57 55 55 56 57 58 58 59 60 60 59 59 58 56 55 54 53 52 50 49 49 48 48 48 47 48 48 48 49 48 47 45 44 44 43
60 60 60 59 60 60 60 60 59 59 59 60 61 62 63 63 62 60 59 59 58 57 56 55 55 54 53 52 51 51 50 50 51 51 51 50 48 47 45 44 44 44
62 63 63 63 62 62 62 64 64 64 62 62 62 63 63 63 61 60 59 58 57 57 57 57 57 57 56 55 54 53 53 52 51 50 49 48 47 46 45 45 45 46
63 64 65 66 66 66 67 68 68 67 66 65 64 64 64 64 64 64 62 60 58 57 57 57 56 56 55 54 54 53 52 50 49 48 48 48 48 48 48 49 50 50
65 66 66 66 66 68 69 69 70 69 69 68 67 67 67 66 66 65 63 61 59 59 59 58 57 57 56 56 55 54 53 52 51 51 51 52 52 53 54 55 56 56
63 66 66 65 65 66 68 68 68 69 69 69 69 69 68 67 66 64 62 61 59 59 59 59 58 58 58 59 59 58 57 56 56 56 56 56 56 57 58 59 60 60
62 63 63 63 64 66 68 68 68 69 69 69 69 69 68 65 63 62 60 59 58 57 57 57 58 59 59 60 61 61 60 59 59 58 58 58 58 57 58 60 60 60
63 64 63 64 66 67 68 69 68 68 67 66 65 65 63 61 60 60 59 59 59 58 58 58 59 60 60 61 63 63 62 61 60 59 59 58 57 56 57 59 59 59
62 63 63 64 64 64 65 65 65 65 65 63 63 62 61 61 60 60 60 60 60 61 60 60 61 62 62 63 63 64 64 63 62 61 61 61 59 59 60 60 60 58
61 62 62 63 63 63 63 63 63 64 63 63 62 62 62 61 61 61 61 62 62 62 62 62 62 62 63 63 64 64 66 67 65 64 63 62 61 61 61 61 59 58
62 62 63 64 64 63 63 63 63 63 63 62 62 62 62 62 63 62 62 62 62 63 63 63 63 62 63 63 63 64 66 68 67 65 64 63 62 62 61 60 59 58
64 65 65 66 66 65 64 64 64 64 63 62 62 62 61 62 63 63 62 62 62 62 63 63 63 63 63 64 65 65 65 66 66 64 62 61 61 61 61 59 58 59
65 66 67 68 68 68 68 67 67 66 65 64 63 62 61 61 62 63 63 62 62 63 64 65 64 65 66 66 66 65 64 64 63 61 60 59 57 57 58 57 57 58
66 67 68 69 69 69 70 70 69 69 69 68 67 67 66 66 66 66 66 66 66 66 65 64 65 66 67 67 65 64 64 63 63 63 63 62 60 60 60 59 58 59
69 70 71 72 73 73 73 73 73 73 73 73 73 72 72 72 70 68 68 69 67 66 65 65 65 65 66 67 66 65 65 64 65 66 67 66 66 66 65 64 63 63
73 74 75 76 76 77 77 76 77 77 77 77 76 76 75 75 73 69 67 65 64 66 67 67 65 65 66 66 65 65 65 65 66 68 68 68 69 69 67 67 67 67
76 76 76 77 77 77 77 77 77 77 76 76 75 75 75 74 72 68 63 62 65 68 67 62 61 64 67 66 65 65 65 65 66 66 66 67 70 71 70 70 70 70
75 74 74 73 74 73 73 73 72 72 71 70 69 70 69 69 68 64 60 59 63 64 61 58 58 61 64 64 65 65 65 67 68 68 68 69 72 73 73 73 74 75
71 71 70 70 70 70 69 68 68 68 67 66 65 64 64 65 64 62 60 60 60 59 57 56 56 59 62 65 66 68 69 70 72 71 71 74 75 75 75 75 76 78
Wind_Direction
256 258 260 261 261 263 264 266 267 268 268 269 271 273 274 275 277 278 280 281 279 276 276 279 282 284 284 283 281 279 278 277 277 277 278 279 281 282 282 283 284 285
256 257 259 260 261 261 262 263 266 269 271 274 276 277 277 277 277 277 278 278 276 276 279 282 284 285 285 283 281 280 279 278 278 278 279 281 282 283 283 283 284 284
255 256 257 259 261 263 264 265 267 269 272 275 275 276 275 275 274 274 275 274 274 276 280 284 286 286 284 282 280 280 279 278 279 279 280 281 282 284 284 283 283 282
255 256 257 258 260 263 265 267 269 270 271 272 273 272 272 272 272 271 271 271 273 277 282 284 285 283 281 279 278 277 277 277 278 279 280 281 283 283 283 283 282 282
256 256 257 258 259 261 264 265 267 268 268 267 267 266 266 267 267 267 268 270 274 278 282 283 282 279 277 277 277 276 276 277 278 279 280 281 282 282 282 282 281 281
255 257 257 258 259 260 262 263 263 264 264 264 264 264 265 265 266 267 269 273 276 279 281 281 279 276 275 275 276 277 277 278 278 279 280 280 281 281 281 280 279 279
254 255 256 257 259 261 262 262 262 262 263 263 264 265 265 267 269 271 274 277 280 281 281 280 278 275 275 275 275 276 276 276 277 278 280 281 282 282 281 280 278 279
257 257 256 256 257 259 260 260 261 262 263 262 262 263 265 267 270 273 276 278 279 279 279 278 277 276 276 276 275 275 275 276 277 279 281 282 283 283 282 279 278 279
261 261 260 259 258 258 257 257 259 262 263 262 262 262 264 267 270 273 277 279 279 279 278 276 275 275 277 277 276 276 276 278 280 282 284 285 285 285 284 282 282 284
259 261 262 262 261 260 260 260 262 264 265 264 264 264 265 267 269 273 277 278 279 280 281 280 278 279 280 280 280 280 282 283 285 285 286 287 286 286 285 284 284 286
256 258 261 263 264 263 263 264 265 266 266 266 267 267 268 269 271 273 275 275 274 275 277 278 278 278 279 279 280 281 282 283 284 284 284 284 283 283 282 282 282 284
256 256 258 260 262 263 263 264 265 266 267 268 268 269 270 271 272 273 273 273 272 272 272 272 273 272 273 273 274 275 276 276 276 277 278 277 278 278 278 278 279 281
256 256 256 258 260 260 262 263 264 265 266 268 269 270 271 272 273 272 272 271 271 271 271 271 271 272 272 272 272 272 273 274 274 275 275 274 274 275 276 276 277 278
255 256 256 257 258 259 261 263 264 264 266 267 268 269 271 272 272 272 271 271 271 270 270 270 271 271 272 272 273 274 274 275 276 276 276 276 276 276 275 275 275 276
256 257 257 257 259 260 261 263 263 264 265 266 267 268 269 269 270 270 270 270 270 270 270 270 271 272 272 273 274 275 275 275 275 275 275 276 276 275 274 274 275 276
257 258 258 259 260 261 262 263 264 264 264 265 265 266 266 267 268 269 269 270 270 271 271 271 272 272 273 273 274 275 275 274 274 275 275 275 275 274 273 274 275 276
258 258 259 259 260 260 262 263 263 264 264 264 264 265 266 266 267 268 269 270 271 271 272 272 272 272 272 273 273 274 275 275 276 276 276 277 276 276 276 276 277 277
259 259 259 259 260 260 261 262 262 263 264 264 265 266 266 267 267 268 269 270 271 272 273 272 272 272 272 273 274 276 277 278 279 279 278 277 277 277 277 278 278 277
259 260 259 259 259 259 259 260 261 262 263 264 265 266 267 268 268 269 269 270 271 272 272 272 272 273 274 275 276 278 278 279 280 280 279 278 277 277 278 278 277 277
261 261 261 261 260 259 259 260 260 261 262 263 264 265 266 267 268 269 270 270 271 271 271 272 272 273 274 276 277 278 277 277 277 276 276 275 275 275 275 275 275 276
263 263 263 263 262 262 261 261 261 261 261 262 262 263 264 265 267 269 269 270 271 272 272 272 273 274 275 275 275 274 273 273 273 272 271 270 270 270 271 270 270 270
265 265 265 265 264 264 264 263 263 263 263 262 262 263 263 264 266 268 270 272 273 271 270 272 274 275 275 274 273 271 269 268 267 267 267 268 269 269 270 270 269 268
266 266 266 266 266 266 266 265 265 265 265 265 265 264 264 264 264 265 267 269 269 267 269 272 273 273 272 271 270 269 267 265 264 264 265 266 267 268 269 268 268 267
267 267 267 267 267 267 267 267 267 266 266 267 267 267 267 266 265 264 263 262 262 264 267 268 268 267 268 267 265 264 264 264 263 262 262 262 263 264 265 265 265 265
267 268 268 268 268 268 268 268 268 268 268 268 268 268 269 268 267 265 263 261 261 264 264 264 264 264 264 263 262 262 262 262 261 261 261 260 260 261 262 263 264 264
268 268 268 268 268 268 268 268 269 269 268 268 268 268 269 269 268 267 265 264 266 266 264 263 263 263 263 263 263 263 262 263 263 262 262 261 260 260 260 262 264 265
Height
10607 10608 10609 10611 10611 10612 10612 10613 10613 10615 10616 10617 10618 10618 10619 10620 10621 10622 10622 10623 10623 10623 10623 10623 10623 10623 10623 10622 10622 10622 10622 10622 10621 10621 10621 10621 10620 10619 10619 10618 10617 10616
10602 10603 10605 10606 10607 10607 10608 10609 10609 10610 10610 10611 10612 10612 10613 10614 10614 10615 10616 10616 10616 10617 10617 10618 10618 10618 10617 10617 10617 10617 10616 10616 10616 10616 10616 10615 10615 10614 10613 10613 10612 10611
10597 10598 10599 10600 10601 10602 10603 10604 10604 10605 10605 10605 10606 10607 10607 10608 10608 10609 10610 10610 10610 10611 10611 10612 10612 10612 10612 10611 10611 10611 10611 10611 10611 10610 10610 10610 10609 10609 10608 10607 10607 10606
10592 10593 10594 10595 10596 10597 10597 10597 10598 10599 10600 10600 10600 10601 10601 10602 10602 10603 10604 10604 10605 10605 10606 10606 10606 10606 10606 10606 10605 10605 10605 10605 10605 10605 10605 10604 10604 10603 10602 10602 10601 10600
10587 10588 10589 10590 10591 10592 10592 10592 10592 10593 10594 10595 10595 10596 10596 10596 10597 10597 10598 10599 10599 10600 10600 10600 10600 10600 10600 10600 10600 10600 10599 10599 10599 10599 10599 10598 10598 10598 10597 10596 10596 10595
10581 10582 10584 10584 10585 10586 10587 10587 10587 10587 10588 10589 10589 10589 10590 10590 10591 10591 10592 10592 10593 10593 10594 10594 10594 10594 10594 10594 10593 10593 10593 10593 10593 10593 10593 10593 10593 10592 10591 10591 10590 10590
10575 10577 10578 10578 10579 10580 10580 10581 10581 10581 10582 10582 10583 10583 10584 10584 10584 10585 10585 10585 10585 10585 10586 10586 10587 10587 10587 10587 10587 10587 10587 10587 10586 10586 10586 10586 10586 10586 10586 10585 10585 10584
10569 10570 10571 10572 10573 10573 10574 10574 10575 10575 10576 10576 10576 10577 10577 10577 10578 10578 10578 10578 10578 10578 10578 10578 10578 10579 10579 10580 10580 10580 10580 10580 10580 10580 10580 10579 10579 10579 10579 10579 10579 10578
10563 10563 10564 10564 10565 10566 10567 10567 10568 10568 10569 10569 10570 10570 10570 10571 10571 10571 10571 10570 10570 10571 10571 10571 10571 10571 10571 10571 10572 10572 10573 10573 10573 10572 10572 10571 10571 10571 10570 10570 10570 10569
10558 10557 10557 10557 10558 10559 10559 10560 10561 10561 10562 10562 10563 10563 10564 10564 10565 10565 10565 10564 10563 10562 10561 10562 10562 10562 10563 10563 10563 10563 10564 10564 10563 10563 10562 10561 10561 10561 10561 10561 10561 10561
10552 10552 10551 10550 10550 10551 10551 10552 10552 10553 10554 10555 10556 10556 10557 10557 10557 10558 10558 10558 10558 10557 10556 10555 10554 10554 10554 10554 10554 10555 10555 10555 10555 10554 10554 10553 10553 10554 10554 10554 10554 10554
10545 10544 10545 10545 10544 10543 10542 10543 10544 10545 10546 10547 10548 10549 10549 10549 10550 10550 10551 10551 10551 10551 10551 10550 10549 10549 10549 10548 10548 10549 10549 10550 10550 10549 10549 10548 10548 10548 10548 10548 10547 10547
10536 10535 10538 10539 10537 10535 10534 10535 10536 10537 10538 10539 10540 10540 10541 10541 10542 10542 10543 10544 10544 10544 10544 10543 10542 10543 10543 10542 10542 10543 10544 10545 10545 10544 10544 10543 10543 10543 10542 10541 10541 10541
10529 10529 10532 10532 10530 10529 10528 10529 10529 10530 10531 10531 10531 10532 10533 10534 10534 10534 10535 10535 10536 10537 10537 10537 10536 10536 10536 10535 10534 10535 10536 10537 10537 10537 10536 10536 10536 10536 10534 10533 10533 10533
10523 10524 10525 10525 10524 10523 10522 10522 10522 10523 10524 10524 10524 10525 10526 10526 10526 10526 10527 10528 10528 10529 10530 10530 10530 10529 10529 10527 10526 10526 10527 10528 10528 10528 10528 10527 10528 10528 10526 10525 10525 10525
10516 10517 10517 10518 10517 10517 10516 10516 10516 10516 10517 10518 10518 10518 10519 10519 10519 10519 10520 10520 10521 10521 10522 10523 10523 10522 10521 10520 10519 10518 10517 10518 10519 10520 10519 10519 10520 10519 10518 10517 10517 10518
10509 10509 10510 10510 10510 10510 10510 10510 10509 10508 10509 10511 10511 10511 10512 10512 10512 10512 10513 10513 10513 10514 10514 10515 10515 10514 10512 10512 10511 10510 10508 10508 10509 10511 10510 10510 10510 10509 10508 10509 10509 10509
10501 10501 10502 10502 10502 10503 10504 10503 10501 10501 10502 10502 10503 10503 10504 10505 10505 10505 10506 10506 10505 10505 10506 10506 10506 10506 10504 10503 10503 10502 10499 10497 10498 10500 10500 10500 10500 10499 10499 10500 10499 10499
10493 10492 10492 10493 10493 10495 10495 10495 10493 10493 10494 10495 10495 10496 10497 10497 10496 10497 10498 10499 10498 10498 10497 10497 10497 10497 10496 10495 10495 10494 10492 10489 10488 10489 10489 10489 10489 10489 10489 10490 10490 10489
10484 10483 10482 10482 10483 10484 10486 10486 10486 10486 10486 10487 10488 10489 10489 10489 10488 10489 10491 10491 10491 10490 10490 10490 10490 10490 10489 10488 10488 10487 10485 10483 10481 10481 10480 10478 10480 10480 10480 10481 10481 10481
10474 10473 10472 10472 10473 10474 10475 10476 10477 10477 10478 10479 10480 10481 10482 10481 10482 10482 10482 10482 10482 10481 10481 10482 10483 10483 10481 10480 10480 10479 10477 10475 10475 10475 10473 10472 10473 10473 10473 10474 10475 10474
10463 10463 10462 10461 10462 10462 10463 10465 10465 10466 10467 10469 10471 10472 10473 10474 10476 10478 10477 10475 10474 10472 10473 10475 10478 10477 10473 10470 10470 10470 10469 10468 10466 10465 10465 10466 10466 10465 10466 10467 10467 10467
10453 10453 10452 10451 10451 10451 10452 10453 10454 10455 10456 10457 10459 10461 10462 10464 10468 10473 10474 10471 10467 10465 10467 10472 10473 10470 10464 10461 10460 10459 10459 10459 10458 10456 10458 10459 10458 10457 10458 10459 10459 10459
10442 10442 10442 10441 10440 10441 10442 10442 10443 10444 10445 10446 10448 10449 10450 10452 10456 10461 10464 10461 10458 10459 10463 10466 10465 10459 10453 10451 10451 10449 10449 10449 10448 10448 10450 10451 10449 10448 10449 10449 10450 10451
10431 10432 10432 10432 10431 10431 10431 10432 10432 10433 10435 10436 10437 10438 10439 10440 10442 10447 10450 10447 10447 10452 10455 10455 10453 10447 10442 10441 10440 10440 10441 10440 10438 10439 10442 10441 10439 10439 10440 10440 10441 10441
10422 10422 10422 10422 10422 10421 10422 10423 10423 10423 10425 10426 10428 10429 10429 10429 10430 10433 10435 10435 10437 10441 10443 10443 10441 10437 10434 10433 10432 10431 10431 10429 10428 10430 10432 10429 10428 10430 10431 10432 10432 10431